Regional Weather Roundup
Issued by NWS

Home | Current Version | Previous Version | Text Only | Print | Product List | Glossary On
Versions: 1 2 3 4 5 6 7 8 9 10 11 12 13 14 15 16 17 18 19 20 21 22 23 24 25 26 27 28 29 30 31 32 33 34 35 36 37 38 39 40 41 42 43 44 45 46 47 48 49 50
000
ASUS45 KSLC 291210
RWRUT

UTAH REGIONAL WEATHER ROUNDUP
NATIONAL WEATHER SERVICE SALT LAKE CITY UT
600 AM MDT WED JUL 29 2015

UTZ001>011-023>025-291300-

NORTHERN UTAH

CITY           SKY/WX    TMP DP  RH WIND       PRES   REMARKS
BRIGHAM CITY   CLEAR     51  36  57 CALM      30.29R
HILL AFB       CLEAR     53  29  39 E17       30.29R
LOGAN          CLEAR     46  36  68 SE3       30.32R
OGDEN          CLEAR     52  30  43 SW5       30.27R
PROVO AIRPORT  CLEAR     48  32  53 CALM      30.29R
SALT LAKE CITY CLEAR     54  34  46 N7        30.26S
VERNAL         CLEAR     50  30  46 W7        30.29R
WENDOVER       PTCLDY    57  30  35 CALM      30.27R
HEBER CITY     PTCLDY    37  30  75 CALM      30.38R
WEST JORDAN    CLEAR     57  30  35 CALM      30.28S

$$

UTZ012>022-026-027-291300-

SOUTHERN/CENTRAL UTAH

CITY           SKY/WX    TMP DP  RH WIND       PRES   REMARKS
BLANDING       PTCLDY    62  28  26 CALM      30.31R
BRYCE CANYON   PTCLDY    41  30  65 W9        30.41R
CEDAR CITY     CLEAR     51  28  41 CALM      30.28R
DELTA          CLEAR     57  22  26 N3        30.26R
HANKSVILLE     CLEAR     57  28  33 CALM      30.20R
MILFORD        CLEAR     50  22  33 CALM      30.26R
MOAB/CYNLANDS  CLEAR     59  27  29 W5        30.16R
PRICE          CLEAR     61  19  19 CALM      30.27R
ST GEORGE      MOSUNNY   77  28  16 N8        30.08R
KANAB          PTCLDY    57  36  44 NE6       30.25R

$$

REGIONAL REPORTS     COLORADO/ARIZONA

CITY           SKY/WX    TMP DP  RH WIND       PRES   REMARKS
CRAIG, CO      CLEAR     35  30  82 W5        30.37R WCI  31
GRAND JUNCTION CLEAR     59  28  30 CALM      30.21R
RIFLE          CLEAR     50  35  56 E5        30.30R
MONTROSE       CLEAR     54  35  48 SE9       30.29R
CORTEZ         CLEAR     48  38  68 E7        30.25R
PAGE, AZ       PTCLDY    72  31  22 SW3       30.13R
GRAND CANYON   MOCLDY    46  26  45 CALM      30.31R
KINGMAN        MOCLDY    74  42  31 CALM      30.06R
FLAGSTAFF      PTCLDY    55  48  77 W3        30.33S

$$

REGIONAL REPORTS    NEVADA/IDAHO/WYOMING

CITY           SKY/WX    TMP DP  RH WIND       PRES   REMARKS
LAS VEGAS, NV  PTCLDY    83  34  17 SW3       29.92R
ELY            PTCLDY    42  21  43 S8        30.35S
ELKO           PTCLDY    44  30  57 CALM      30.28S
POCATELLO, ID  CLEAR     40  36  86 CALM      30.33R
BURLEY         CLEAR     42  36  79 E5        30.29R
EVANSTON, WY   PTCLDY    45  24  43 NE3       30.42R
ROCK SPRINGS   PTCLDY    47  23  38 CALM      30.40R
KEMMERER       PTCLDY    36  30  80 N9        30.44R WCI  29

$$



USA.gov is the U.S. government's official web portal to all federal, state and local government web resources and services.